sat.trackr.live / text

‹ back to catalog

STARLINK-3645

NORAD 51986 · 2022-025AG

PAYLOAD ACTIVE UNKNOWN

§ Identity

Operator
Country
US
Launch date
2022-03-09
Launch site
AFETR
Launch vehicle
Mass (kg)
RCS (m²)

Purposes: comms

External: N2YO · Heavens-Above · Gunter

§ Orbital elements

Epoch: 2026-09-19T14:14:29.522400Z

Period
93.79 min
Inclination
53.1596°
Eccentricity
0.0001294
Mean motion
15.35396922 rev/d
Perigee alt
458.9 km
Apogee alt
460.6 km
Semi-major
6,837.9 km
B*
-1.9216e-5
RAAN
239.6785°
Arg perigee
83.1980°
Mean anomaly
276.9171°
Rev number
25,045

§ Raw data

STARLINK-36451 51986U 22025AG  26262.59339725 -.00001051  00000+0 -19216-4 0  99922 51986  53.1596 239.6785 0001294  83.1980 276.9171 15.35396922250459

JSON: /api/v1/satellites/51986 · /tle

For live sub-satellite position, see the globe view (requires WebGL).

§ Visibility from observer

Set your observer location to see the next 7 days of passes ≥ 10°. The values pass through the URL so the page stays shareable.

No JS? Fill the form by hand. The geolocation button needs JavaScript.